Time,TemperatureF,DewpointF,PressureIn,WindDirection,WindDirectionDegrees,WindSpeedMPH,WindSpeedGustMPH,Humidity,HourlyPrecipIn,Conditions,Clouds,dailyrainin,SoftwareType,DateUTC
2013-02-24 00:02:00,27.7,3.6,29.86,SSW,213,6.0,8.0,35,0.00,,,0.04,meteohub,2013-02-24 06:02:00,
2013-02-24 00:07:00,27.5,3.4,29.86,SSW,192,5.0,8.0,35,0.00,,,0.00,meteohub,2013-02-24 06:07:00,
2013-02-24 00:12:00,27.5,3.4,29.86,South,187,6.0,8.0,35,0.00,,,0.00,meteohub,2013-02-24 06:12:00,
2013-02-24 00:17:00,27.5,3.4,29.86,SSW,200,6.0,8.0,35,0.00,,,0.00,meteohub,2013-02-24 06:17:00,
2013-02-24 00:22:00,27.7,3.6,29.86,South,189,6.0,7.0,35,0.00,,,0.00,meteohub,2013-02-24 06:22:00,
2013-02-24 00:27:00,27.7,3.6,29.86,South,186,4.0,8.0,35,0.00,,,0.00,meteohub,2013-02-24 06:27:00,
2013-02-24 00:32:00,27.5,2.8,29.86,South,185,5.0,8.0,34,0.00,,,0.00,meteohub,2013-02-24 06:32:00,
2013-02-24 00:37:00,27.5,3.4,29.86,SSW,198,4.0,8.0,35,0.00,,,0.00,meteohub,2013-02-24 06:37:00,
2013-02-24 00:43:00,27.5,3.4,29.86,SSW,205,5.0,8.0,35,0.00,,,0.00,meteohub,2013-02-24 06:43:00,
2013-02-24 00:48:00,27.5,3.4,29.86,SSW,193,5.0,6.0,35,0.00,,,0.00,meteohub,2013-02-24 06:48:00,
2013-02-24 00:53:00,27.5,3.4,29.86,South,190,6.0,6.0,35,0.00,,,0.00,meteohub,2013-02-24 06:53:00,
2013-02-24 00:58:00,27.5,3.4,29.86,SSW,203,6.0,7.0,35,0.00,,,0.00,meteohub,2013-02-24 06:58:00,
2013-02-24 01:03:00,27.3,3.2,29.86,South,187,6.0,8.0,35,0.00,,,0.00,meteohub,2013-02-24 07:03:00,
2013-02-24 01:08:00,27.1,3.0,29.86,SSW,197,6.0,8.0,35,0.00,,,0.00,meteohub,2013-02-24 07:08:00,
2013-02-24 01:13:00,27.0,3.0,29.86,South,176,5.0,8.0,35,0.00,,,0.00,meteohub,2013-02-24 07:13:00,
2013-02-24 01:18:00,27.0,3.0,29.86,South,173,4.0,8.0,35,0.00,,,0.00,meteohub,2013-02-24 07:18:00,
2013-02-24 01:23:00,27.0,3.0,29.86,South,179,5.0,7.0,35,0.00,,,0.00,meteohub,2013-02-24 07:23:00,
2013-02-24 01:28:00,26.8,2.8,29.86,SSW,204,5.0,6.0,35,0.00,,,0.00,meteohub,2013-02-24 07:28:00,
2013-02-24 01:33:00,26.6,2.7,29.86,South,189,4.0,6.0,35,0.00,,,0.00,meteohub,2013-02-24 07:33:00,
2013-02-24 01:38:00,26.6,2.7,29.86,South,189,5.0,8.0,35,0.00,,,0.00,meteohub,2013-02-24 07:38:00,
2013-02-24 01:43:00,26.4,2.5,29.86,SSW,195,5.0,8.0,35,0.00,,,0.00,meteohub,2013-02-24 07:43:00,
2013-02-24 01:49:00,26.2,2.8,29.89,South,187,6.0,8.0,36,0.00,,,0.00,meteohub,2013-02-24 07:49:00,
2013-02-24 01:54:00,26.1,2.8,29.89,SSW,195,4.0,8.0,36,0.00,,,0.00,meteohub,2013-02-24 07:54:00,
2013-02-24 01:59:00,26.1,2.8,29.89,SSW,201,5.0,6.0,36,0.00,,,0.00,meteohub,2013-02-24 07:59:00,
2013-02-24 02:04:00,25.9,2.7,29.89,South,190,6.0,6.0,36,0.00,,,0.00,meteohub,2013-02-24 08:04:00,
2013-02-24 02:09:00,25.7,2.5,29.89,South,189,3.0,6.0,36,0.00,,,0.00,meteohub,2013-02-24 08:09:00,
2013-02-24 02:14:00,25.7,2.5,29.89,SSW,194,4.0,8.0,36,0.00,,,0.00,meteohub,2013-02-24 08:14:00,
2013-02-24 02:19:00,25.5,2.3,29.86,SSW,192,4.0,8.0,36,0.00,,,0.00,meteohub,2013-02-24 08:19:00,
2013-02-24 02:24:00,25.3,2.7,29.86,South,186,4.0,8.0,37,0.00,,,0.00,meteohub,2013-02-24 08:24:00,
2013-02-24 02:29:00,25.3,2.7,29.89,SSW,196,6.0,8.0,37,0.00,,,0.00,meteohub,2013-02-24 08:29:00,
2013-02-24 02:34:00,25.3,2.7,29.89,SSW,197,5.0,8.0,37,0.00,,,0.00,meteohub,2013-02-24 08:34:00,
2013-02-24 02:39:00,25.2,2.5,29.89,South,191,4.0,6.0,37,0.00,,,0.00,meteohub,2013-02-24 08:39:00,
2013-02-24 02:45:00,25.2,2.5,29.89,South,188,4.0,6.0,37,0.00,,,0.00,meteohub,2013-02-24 08:45:00,
2013-02-24 02:50:00,25.0,3.0,29.89,South,188,2.0,6.0,38,0.00,,,0.00,meteohub,2013-02-24 08:50:00,
2013-02-24 02:55:00,25.0,2.3,29.89,SW,227,3.0,6.0,37,0.00,,,0.00,meteohub,2013-02-24 08:55:00,
2013-02-24 03:00:00,24.6,2.7,29.89,SW,221,4.0,6.0,38,0.00,,,0.00,meteohub,2013-02-24 09:00:00,
2013-02-24 03:05:00,24.4,2.5,29.89,SSW,202,3.0,5.0,38,0.00,,,0.00,meteohub,2013-02-24 09:05:00,
2013-02-24 03:10:00,24.4,2.5,29.89,SSW,211,0.0,5.0,38,0.00,,,0.00,meteohub,2013-02-24 09:10:00,
2013-02-24 03:15:00,24.4,3.0,29.89,SSW,211,3.0,5.0,39,0.00,,,0.00,meteohub,2013-02-24 09:15:00,
2013-02-24 03:20:00,24.4,3.0,29.89,SSW,205,4.0,5.0,39,0.00,,,0.00,meteohub,2013-02-24 09:20:00,
2013-02-24 03:25:00,24.4,3.0,29.89,SSW,206,0.0,4.0,39,0.00,,,0.00,meteohub,2013-02-24 09:25:00,
2013-02-24 03:30:00,24.4,3.6,29.86,SSW,202,4.0,4.0,40,0.00,,,0.00,meteohub,2013-02-24 09:30:00,
2013-02-24 03:36:00,24.6,4.3,29.86,SSW,195,2.0,4.0,41,0.00,,,0.00,meteohub,2013-02-24 09:36:00,
2013-02-24 03:41:00,24.6,3.7,29.86,SSW,195,0.0,4.0,40,0.00,,,0.00,meteohub,2013-02-24 09:41:00,
2013-02-24 03:46:00,24.6,3.7,29.86,SSW,195,0.0,4.0,40,0.00,,,0.00,meteohub,2013-02-24 09:46:00,
2013-02-24 03:51:00,24.6,3.7,29.86,SSW,196,0.0,4.0,40,0.00,,,0.00,meteohub,2013-02-24 09:51:00,
2013-02-24 03:56:00,24.6,3.7,29.86,SSW,196,0.0,4.0,40,0.00,,,0.00,meteohub,2013-02-24 09:56:00,
2013-02-24 04:01:00,24.6,3.7,29.86,SSW,196,0.0,4.0,40,0.00,,,0.00,meteohub,2013-02-24 10:01:00,
2013-02-24 04:06:00,24.4,3.0,29.86,SSW,196,0.0,2.0,39,0.00,,,0.00,meteohub,2013-02-24 10:06:00,
2013-02-24 04:11:00,24.1,2.7,29.86,SSW,196,0.0,0.0,39,0.00,,,0.00,meteohub,2013-02-24 10:11:00,
2013-02-24 04:16:00,23.5,2.3,29.89,SSW,196,0.0,0.0,39,0.00,,,0.00,meteohub,2013-02-24 10:16:00,
2013-02-24 04:21:00,23.5,2.3,29.89,SSW,196,0.0,0.0,39,0.00,,,0.00,meteohub,2013-02-24 10:21:00,
2013-02-24 04:26:00,23.5,2.3,29.89,SSW,196,0.0,0.0,39,0.00,,,0.00,meteohub,2013-02-24 10:26:00,
2013-02-24 04:31:00,23.7,2.3,29.89,SSW,196,0.0,0.0,39,0.00,,,0.00,meteohub,2013-02-24 10:31:00,
2013-02-24 04:36:00,23.9,3.0,29.89,SSW,196,0.0,0.0,40,0.00,,,0.00,meteohub,2013-02-24 10:36:00,
2013-02-24 04:41:00,24.1,3.2,29.89,SSW,196,0.0,0.0,40,0.00,,,0.00,meteohub,2013-02-24 10:41:00,
2013-02-24 04:47:00,24.4,4.1,29.89,SSW,196,0.0,0.0,41,0.00,,,0.00,meteohub,2013-02-24 10:47:00,
2013-02-24 04:52:00,24.6,4.8,29.89,South,191,3.0,0.0,42,0.00,,,0.00,meteohub,2013-02-24 10:52:00,
2013-02-24 04:57:00,24.8,5.0,29.89,South,191,0.0,4.0,42,0.00,,,0.00,meteohub,2013-02-24 10:57:00,
2013-02-24 05:02:00,25.0,4.6,29.89,South,191,0.0,4.0,41,0.00,,,0.00,meteohub,2013-02-24 11:02:00,
2013-02-24 05:07:00,25.2,4.8,29.89,South,191,0.0,4.0,41,0.00,,,0.00,meteohub,2013-02-24 11:07:00,
2013-02-24 05:12:00,25.3,5.0,29.89,South,188,4.0,4.0,41,0.00,,,0.00,meteohub,2013-02-24 11:12:00,
2013-02-24 05:17:00,25.5,5.0,29.89,South,184,3.0,4.0,41,0.00,,,0.00,meteohub,2013-02-24 11:17:00,
2013-02-24 05:22:00,25.3,3.9,29.89,South,181,0.0,4.0,39,0.00,,,0.00,meteohub,2013-02-24 11:22:00,
2013-02-24 05:27:00,25.3,3.9,29.89,South,181,0.0,4.0,39,0.00,,,0.00,meteohub,2013-02-24 11:27:00,
2013-02-24 05:32:00,25.5,3.9,29.89,SSW,198,3.0,4.0,39,0.00,,,0.00,meteohub,2013-02-24 11:32:00,
2013-02-24 05:37:00,25.7,4.1,29.89,SSW,198,0.0,4.0,39,0.00,,,0.00,meteohub,2013-02-24 11:37:00,
2013-02-24 05:42:00,25.7,4.1,29.89,SSW,198,0.0,4.0,39,0.00,,,0.00,meteohub,2013-02-24 11:42:00,
2013-02-24 05:47:00,25.7,4.1,29.89,SSW,198,0.0,4.0,39,0.00,,,0.00,meteohub,2013-02-24 11:47:00,
2013-02-24 05:52:00,25.9,4.3,29.89,SSW,198,0.0,0.0,39,0.00,,,0.00,meteohub,2013-02-24 11:52:00,
2013-02-24 05:57:00,25.9,4.3,29.89,SSW,198,0.0,0.0,39,0.00,,,0.00,meteohub,2013-02-24 11:57:00,
2013-02-24 06:02:00,26.1,4.5,29.89,SSW,198,0.0,0.0,39,0.00,,,0.00,meteohub,2013-02-24 12:02:00,
2013-02-24 06:07:00,26.1,4.5,29.89,SSW,198,0.0,0.0,39,0.00,,,0.00,meteohub,2013-02-24 12:07:00,
2013-02-24 06:12:00,26.2,4.6,29.89,SSW,198,0.0,0.0,39,0.00,,,0.00,meteohub,2013-02-24 12:12:00,
2013-02-24 06:17:00,26.2,4.6,29.89,SSW,198,0.0,0.0,39,0.00,,,0.00,meteohub,2013-02-24 12:17:00,
2013-02-24 06:22:00,26.2,4.6,29.89,SSW,198,0.0,0.0,39,0.00,,,0.00,meteohub,2013-02-24 12:22:00,
2013-02-24 06:27:00,26.4,4.8,29.89,SSW,198,0.0,0.0,39,0.00,,,0.00,meteohub,2013-02-24 12:27:00,
2013-02-24 06:32:00,26.4,4.8,29.89,SSW,198,0.0,0.0,39,0.00,,,0.00,meteohub,2013-02-24 12:32:00,
2013-02-24 06:37:00,26.6,5.0,29.89,SSW,198,0.0,0.0,39,0.00,,,0.00,meteohub,2013-02-24 12:37:00,
2013-02-24 06:42:00,26.8,5.2,29.89,SSW,198,0.0,0.0,39,0.00,,,0.00,meteohub,2013-02-24 12:42:00,
2013-02-24 06:47:00,26.8,5.2,29.89,SSW,197,0.0,0.0,39,0.00,,,0.00,meteohub,2013-02-24 12:47:00,
2013-02-24 06:52:00,27.0,5.4,29.89,SSW,198,0.0,0.0,39,0.00,,,0.00,meteohub,2013-02-24 12:52:00,
2013-02-24 06:57:00,27.0,5.4,29.89,SSW,197,0.0,0.0,39,0.00,,,0.00,meteohub,2013-02-24 12:57:00,
2013-02-24 07:02:00,27.0,5.4,29.89,SSW,198,0.0,0.0,39,0.00,,,0.00,meteohub,2013-02-24 13:02:00,
2013-02-24 07:07:00,27.1,5.5,29.89,SSW,198,0.0,0.0,39,0.00,,,0.00,meteohub,2013-02-24 13:07:00,
2013-02-24 07:12:00,27.3,5.5,29.89,SSW,198,0.0,0.0,39,0.00,,,0.00,meteohub,2013-02-24 13:12:00,
2013-02-24 07:17:00,27.5,5.7,29.89,SSW,198,0.0,0.0,39,0.00,,,0.00,meteohub,2013-02-24 13:17:00,
2013-02-24 07:23:00,27.7,5.9,29.89,SSW,197,0.0,0.0,39,0.00,,,0.00,meteohub,2013-02-24 13:23:00,
2013-02-24 07:28:00,27.9,6.1,29.89,SSW,197,0.0,3.0,39,0.00,,,0.00,meteohub,2013-02-24 13:28:00,
2013-02-24 07:33:00,28.0,5.7,29.92,SSW,197,0.0,3.0,38,0.00,,,0.00,meteohub,2013-02-24 13:33:00,
2013-02-24 07:38:00,28.2,5.9,29.92,SSW,198,0.0,3.0,38,0.00,,,0.00,meteohub,2013-02-24 13:38:00,
2013-02-24 07:43:00,28.2,5.9,29.92,SSW,198,0.0,3.0,38,0.00,,,0.00,meteohub,2013-02-24 13:43:00,
2013-02-24 07:48:00,28.4,6.1,29.92,SSW,197,0.0,0.0,38,0.00,,,0.00,meteohub,2013-02-24 13:48:00,
2013-02-24 07:53:00,28.6,5.5,29.92,SSW,197,4.0,0.0,37,0.00,,,0.00,meteohub,2013-02-24 13:53:00,
2013-02-24 07:58:00,28.6,5.0,29.92,SSW,196,3.0,4.0,36,0.00,,,0.00,meteohub,2013-02-24 13:58:00,
2013-02-24 08:04:00,28.8,4.5,29.92,South,178,3.0,4.0,35,0.00,,,0.00,meteohub,2013-02-24 14:04:00,
2013-02-24 08:09:00,28.8,4.5,29.92,South,171,3.0,4.0,35,0.00,,,0.00,meteohub,2013-02-24 14:09:00,
2013-02-24 08:14:00,28.9,4.6,29.92,South,171,0.0,4.0,35,0.00,,,0.00,meteohub,2013-02-24 14:14:00,
2013-02-24 08:19:00,29.1,4.8,29.89,SSE,168,3.0,4.0,35,0.00,,,0.00,meteohub,2013-02-24 14:19:00,
2013-02-24 08:24:00,29.1,4.8,29.89,SSE,168,3.0,4.0,35,0.00,,,0.00,meteohub,2013-02-24 14:24:00,
2013-02-24 08:29:00,29.3,5.0,29.89,SSE,167,3.0,4.0,35,0.00,,,0.00,meteohub,2013-02-24 14:29:00,
2013-02-24 08:34:00,29.5,5.2,29.92,South,170,4.0,4.0,35,0.00,,,0.00,meteohub,2013-02-24 14:34:00,
2013-02-24 08:39:00,29.5,4.6,29.92,South,170,3.0,4.0,34,0.00,,,0.00,meteohub,2013-02-24 14:39:00,
2013-02-24 08:45:00,29.7,4.6,29.92,SSE,154,4.0,4.0,34,0.00,,,0.00,meteohub,2013-02-24 14:45:00,
2013-02-24 08:50:00,29.8,4.3,29.92,South,177,4.0,5.0,33,0.00,,,0.00,meteohub,2013-02-24 14:50:00,
2013-02-24 08:55:00,30.0,4.5,29.92,SSE,159,5.0,6.0,33,0.00,,,0.00,meteohub,2013-02-24 14:55:00,
2013-02-24 09:00:00,30.2,4.5,29.95,South,170,3.0,6.0,33,0.00,,,0.00,meteohub,2013-02-24 15:00:00,
2013-02-24 09:05:00,30.2,4.5,29.95,SSE,166,3.0,6.0,33,0.00,,,0.00,meteohub,2013-02-24 15:05:00,
2013-02-24 09:10:00,30.6,4.8,29.95,South,188,0.0,5.0,33,0.00,,,0.00,meteohub,2013-02-24 15:10:00,
2013-02-24 09:15:00,30.7,5.0,29.95,SSW,198,4.0,5.0,33,0.00,,,0.00,meteohub,2013-02-24 15:15:00,
2013-02-24 09:21:00,30.9,4.5,29.95,South,174,4.0,5.0,32,0.00,,,0.00,meteohub,2013-02-24 15:21:00,
2013-02-24 09:26:00,31.1,4.6,29.95,SSW,206,4.0,6.0,32,0.00,,,0.00,meteohub,2013-02-24 15:26:00,
2013-02-24 09:31:00,31.1,3.9,29.95,South,176,6.0,6.0,31,0.00,,,0.00,meteohub,2013-02-24 15:31:00,
2013-02-24 09:36:00,31.3,4.1,29.95,SW,221,4.0,6.0,31,0.00,,,0.00,meteohub,2013-02-24 15:36:00,
2013-02-24 09:41:00,31.6,5.2,29.95,SSW,201,6.0,6.0,32,0.00,,,0.00,meteohub,2013-02-24 15:41:00,
2013-02-24 09:46:00,31.6,4.5,29.95,SSW,197,5.0,8.0,31,0.00,,,0.00,meteohub,2013-02-24 15:46:00,
2013-02-24 09:51:00,32.0,4.8,29.95,South,190,3.0,8.0,31,0.00,,,0.00,meteohub,2013-02-24 15:51:00,
2013-02-24 09:56:00,32.4,5.7,29.95,South,191,4.0,8.0,32,0.00,,,0.00,meteohub,2013-02-24 15:56:00,
2013-02-24 10:01:00,32.7,5.4,29.95,South,172,4.0,7.0,31,0.00,,,0.00,meteohub,2013-02-24 16:01:00,
2013-02-24 10:06:00,33.1,5.7,29.95,South,172,6.0,7.0,31,0.00,,,0.00,meteohub,2013-02-24 16:06:00,
2013-02-24 10:11:00,33.3,5.2,29.95,South,190,4.0,7.0,30,0.00,,,0.00,meteohub,2013-02-24 16:11:00,
2013-02-24 10:17:00,33.6,5.5,29.95,South,190,0.0,6.0,30,0.00,,,0.00,meteohub,2013-02-24 16:17:00,
2013-02-24 10:22:00,33.8,5.7,29.95,South,190,3.0,6.0,30,0.00,,,0.00,meteohub,2013-02-24 16:22:00,
2013-02-24 10:27:00,34.0,5.7,29.95,South,190,0.0,5.0,30,0.00,,,0.00,meteohub,2013-02-24 16:27:00,
2013-02-24 10:32:00,34.3,6.1,29.95,South,190,0.0,5.0,30,0.00,,,0.00,meteohub,2013-02-24 16:32:00,
2013-02-24 10:37:00,34.5,6.3,29.95,SSW,193,4.0,5.0,30,0.00,,,0.00,meteohub,2013-02-24 16:37:00,
2013-02-24 10:42:00,34.9,6.6,29.95,SSW,193,6.0,6.0,30,0.00,,,0.00,meteohub,2013-02-24 16:42:00,
2013-02-24 10:47:00,34.9,4.3,29.95,SSW,195,5.0,6.0,27,0.00,,,0.00,meteohub,2013-02-24 16:47:00,
2013-02-24 10:52:00,35.2,4.6,29.95,SW,221,4.0,6.0,27,0.00,,,0.00,meteohub,2013-02-24 16:52:00,
2013-02-24 10:57:00,35.4,4.8,29.95,SSW,192,6.0,6.0,27,0.00,,,0.00,meteohub,2013-02-24 16:57:00,
2013-02-24 11:02:00,35.4,4.8,29.95,South,183,7.0,7.0,27,0.00,,,0.00,meteohub,2013-02-24 17:02:00,
2013-02-24 11:07:00,35.4,4.8,29.95,South,191,5.0,7.0,27,0.00,,,0.00,meteohub,2013-02-24 17:07:00,
2013-02-24 11:12:00,35.6,4.8,29.95,SW,225,3.0,7.0,27,0.00,,,0.00,meteohub,2013-02-24 17:12:00,
2013-02-24 11:17:00,35.6,4.8,29.98,SSW,199,3.0,7.0,27,0.00,,,0.00,meteohub,2013-02-24 17:17:00,
2013-02-24 11:22:00,36.0,5.2,29.98,SW,225,0.0,6.0,27,0.00,,,0.00,meteohub,2013-02-24 17:22:00,
2013-02-24 11:27:00,36.1,5.4,29.98,South,188,4.0,6.0,27,0.00,,,0.00,meteohub,2013-02-24 17:27:00,
2013-02-24 11:32:00,36.3,5.5,29.95,South,188,0.0,6.0,27,0.00,,,0.00,meteohub,2013-02-24 17:32:00,
2013-02-24 11:37:00,36.7,3.2,29.95,South,188,0.0,5.0,24,0.00,,,0.00,meteohub,2013-02-24 17:37:00,
2013-02-24 11:42:00,37.0,3.6,29.95,SSW,208,5.0,5.0,24,0.00,,,0.00,meteohub,2013-02-24 17:42:00,
2013-02-24 11:47:00,37.2,3.7,29.98,SSW,206,0.0,5.0,24,0.00,,,0.00,meteohub,2013-02-24 17:47:00,
2013-02-24 11:52:00,37.4,3.9,29.98,South,191,5.0,5.0,24,0.00,,,0.00,meteohub,2013-02-24 17:52:00,
2013-02-24 11:57:00,37.6,4.1,29.98,South,189,7.0,7.0,24,0.00,,,0.00,meteohub,2013-02-24 17:57:00,
2013-02-24 12:02:00,37.8,4.3,29.98,South,177,6.0,8.0,24,0.00,,,0.00,meteohub,2013-02-24 18:02:00,
2013-02-24 12:08:00,37.9,4.3,29.98,SSW,209,3.0,8.0,24,0.00,,,0.00,meteohub,2013-02-24 18:08:00,
2013-02-24 12:13:00,38.5,4.8,29.98,SW,215,3.0,8.0,24,0.00,,,0.00,meteohub,2013-02-24 18:13:00,
2013-02-24 12:18:00,39.0,5.2,29.95,WSW,241,6.0,6.0,24,0.00,,,0.00,meteohub,2013-02-24 18:18:00,
2013-02-24 12:23:00,39.7,5.0,29.95,SSW,196,4.0,6.0,23,0.00,,,0.00,meteohub,2013-02-24 18:23:00,
2013-02-24 12:28:00,40.3,5.4,29.95,WSW,248,0.0,6.0,23,0.00,,,0.00,meteohub,2013-02-24 18:28:00,
2013-02-24 12:33:00,41.5,6.4,29.95,SSW,192,4.0,6.0,23,0.00,,,0.00,meteohub,2013-02-24 18:33:00,
2013-02-24 12:38:00,42.3,7.2,29.95,South,175,3.0,6.0,23,0.00,,,0.00,meteohub,2013-02-24 18:38:00,
2013-02-24 12:43:00,44.1,8.6,29.95,ESE,109,4.0,6.0,23,0.04,,,0.04,meteohub,2013-02-24 18:43:00,
2013-02-24 12:48:00,45.7,9.0,29.95,ESE,109,3.0,5.0,22,0.04,,,0.04,meteohub,2013-02-24 18:48:00,
2013-02-24 12:53:00,46.6,9.7,29.95,ESE,109,2.0,4.0,22,0.04,,,0.04,meteohub,2013-02-24 18:53:00,
2013-02-24 12:58:00,47.7,10.6,29.95,ESE,109,0.0,4.0,22,0.04,,,0.04,meteohub,2013-02-24 18:58:00,
2013-02-24 13:04:00,47.7,7.3,29.95,ESE,109,0.0,4.0,19,0.04,,,0.04,meteohub,2013-02-24 19:04:00,
2013-02-24 13:09:00,46.0,7.2,29.95,ESE,109,0.0,4.0,20,0.04,,,0.04,meteohub,2013-02-24 19:09:00,
2013-02-24 13:14:00,44.8,6.1,29.95,ESE,109,2.0,3.0,20,0.04,,,0.04,meteohub,2013-02-24 19:14:00,
2013-02-24 13:19:00,43.5,5.0,29.92,South,187,8.0,8.0,20,0.04,,,0.04,meteohub,2013-02-24 19:19:00,
2013-02-24 13:24:00,42.8,4.5,29.92,South,169,3.0,8.0,20,0.04,,,0.04,meteohub,2013-02-24 19:24:00,
2013-02-24 13:29:00,42.8,4.5,29.92,South,169,3.0,8.0,20,0.04,,,0.04,meteohub,2013-02-24 19:29:00,
2013-02-24 13:34:00,42.8,4.5,29.92,South,179,5.0,8.0,20,0.04,,,0.04,meteohub,2013-02-24 19:34:00,
2013-02-24 13:39:00,42.8,4.5,29.92,South,189,6.0,6.0,20,0.00,,,0.04,meteohub,2013-02-24 19:39:00,
2013-02-24 13:44:00,43.0,4.6,29.92,South,181,0.0,6.0,20,0.00,,,0.04,meteohub,2013-02-24 19:44:00,
2013-02-24 13:49:00,43.2,4.8,29.92,South,170,4.0,6.0,20,0.00,,,0.04,meteohub,2013-02-24 19:49:00,
2013-02-24 13:54:00,43.2,4.8,29.92,South,170,0.0,6.0,20,0.00,,,0.04,meteohub,2013-02-24 19:54:00,
2013-02-24 13:59:00,43.3,5.0,29.92,SSW,194,3.0,6.0,20,0.00,,,0.04,meteohub,2013-02-24 19:59:00,
2013-02-24 14:05:00,43.3,5.0,29.92,SSE,160,0.0,6.0,20,0.00,,,0.04,meteohub,2013-02-24 20:05:00,
2013-02-24 14:10:00,43.5,5.0,29.92,SSE,160,0.0,6.0,20,0.00,,,0.04,meteohub,2013-02-24 20:10:00,
2013-02-24 14:15:00,44.2,5.7,29.92,ENE,59,2.0,5.0,20,0.00,,,0.04,meteohub,2013-02-24 20:15:00,
2013-02-24 14:20:00,44.4,5.9,29.92,ENE,57,3.0,4.0,20,0.00,,,0.04,meteohub,2013-02-24 20:20:00,
2013-02-24 14:25:00,44.6,5.9,29.92,ENE,57,0.0,4.0,20,0.00,,,0.04,meteohub,2013-02-24 20:25:00,
2013-02-24 14:30:00,44.4,5.9,29.92,NNE,17,6.0,7.0,20,0.00,,,0.04,meteohub,2013-02-24 20:30:00,
2013-02-24 14:35:00,43.2,4.8,29.92,North,3,10.0,10.0,20,0.00,,,0.04,meteohub,2013-02-24 20:35:00,
2013-02-24 14:40:00,42.4,5.2,29.92,North,353,8.0,10.0,21,0.00,,,0.04,meteohub,2013-02-24 20:40:00,
2013-02-24 14:45:00,42.3,5.2,29.92,NNE,27,9.0,10.0,21,0.00,,,0.04,meteohub,2013-02-24 20:45:00,
2013-02-24 14:50:00,42.6,5.4,29.92,NNE,29,4.0,10.0,21,0.00,,,0.04,meteohub,2013-02-24 20:50:00,
2013-02-24 14:55:00,42.8,4.5,29.92,North,4,4.0,11.0,20,0.00,,,0.04,meteohub,2013-02-24 20:55:00,
2013-02-24 15:00:00,42.6,5.4,29.89,NNE,23,4.0,11.0,21,0.00,,,0.04,meteohub,2013-02-24 21:00:00,
2013-02-24 15:05:00,42.4,5.2,29.89,NNE,33,4.0,11.0,21,0.00,,,0.04,meteohub,2013-02-24 21:05:00,
2013-02-24 15:11:00,42.6,5.4,29.89,NE,45,5.0,9.0,21,0.00,,,0.04,meteohub,2013-02-24 21:11:00,
2013-02-24 15:16:00,42.8,4.5,29.89,NE,56,5.0,8.0,20,0.00,,,0.04,meteohub,2013-02-24 21:16:00,
2013-02-24 15:21:00,42.6,5.4,29.89,North,5,6.0,10.0,21,0.00,,,0.04,meteohub,2013-02-24 21:21:00,
2013-02-24 15:26:00,42.3,5.2,29.89,North,357,6.0,10.0,21,0.00,,,0.04,meteohub,2013-02-24 21:26:00,
2013-02-24 15:31:00,42.1,7.0,29.89,NE,42,8.0,11.0,23,0.00,,,0.04,meteohub,2013-02-24 21:31:00,
2013-02-24 15:36:00,41.7,6.6,29.89,NE,43,8.0,11.0,23,0.00,,,0.04,meteohub,2013-02-24 21:36:00,
2013-02-24 15:41:00,41.5,6.4,29.89,NNE,33,8.0,11.0,23,0.00,,,0.04,meteohub,2013-02-24 21:41:00,
2013-02-24 15:46:00,41.2,6.3,29.89,NNE,33,8.0,10.0,23,0.00,,,0.04,meteohub,2013-02-24 21:46:00,
2013-02-24 15:51:00,41.0,6.1,29.89,NE,50,6.0,11.0,23,0.00,,,0.04,meteohub,2013-02-24 21:51:00,
2013-02-24 15:56:00,40.5,5.5,29.89,ENE,58,6.0,11.0,23,0.00,,,0.04,meteohub,2013-02-24 21:56:00,
2013-02-24 16:01:00,40.3,5.4,29.92,North,353,5.0,11.0,23,0.00,,,0.04,meteohub,2013-02-24 22:01:00,
2013-02-24 16:06:00,39.9,5.2,29.92,NNE,19,5.0,11.0,23,0.00,,,0.04,meteohub,2013-02-24 22:06:00,
2013-02-24 16:11:00,39.7,5.0,29.92,North,11,4.0,9.0,23,0.00,,,0.04,meteohub,2013-02-24 22:11:00,
2013-02-24 16:16:00,39.6,4.8,29.92,North,6,4.0,9.0,23,0.00,,,0.04,meteohub,2013-02-24 22:16:00,
2013-02-24 16:21:00,39.4,4.6,29.92,NE,44,4.0,8.0,23,0.00,,,0.04,meteohub,2013-02-24 22:21:00,
2013-02-24 16:27:00,39.2,4.5,29.92,NNE,17,4.0,8.0,23,0.00,,,0.04,meteohub,2013-02-24 22:27:00,
2013-02-24 16:32:00,39.0,5.2,29.92,NNE,19,4.0,6.0,24,0.00,,,0.04,meteohub,2013-02-24 22:32:00,
2013-02-24 16:37:00,38.8,5.2,29.92,North,10,4.0,8.0,24,0.00,,,0.04,meteohub,2013-02-24 22:37:00,
2013-02-24 16:42:00,38.5,4.8,29.92,NNE,32,5.0,8.0,24,0.00,,,0.04,meteohub,2013-02-24 22:42:00,
2013-02-24 16:47:00,38.3,4.6,29.92,North,8,5.0,8.0,24,0.00,,,0.04,meteohub,2013-02-24 22:47:00,
2013-02-24 16:52:00,38.1,4.5,29.92,ENE,67,5.0,8.0,24,0.00,,,0.04,meteohub,2013-02-24 22:52:00,
2013-02-24 16:57:00,38.1,4.5,29.92,North,8,3.0,8.0,24,0.00,,,0.04,meteohub,2013-02-24 22:57:00,
2013-02-24 17:02:00,38.1,4.5,29.92,NNE,21,4.0,8.0,24,0.00,,,0.04,meteohub,2013-02-24 23:02:00,
2013-02-24 17:07:00,37.9,4.3,29.92,NE,38,4.0,8.0,24,0.00,,,0.04,meteohub,2013-02-24 23:07:00,
2013-02-24 17:12:00,37.6,4.1,29.92,NE,41,3.0,7.0,24,0.00,,,0.04,meteohub,2013-02-24 23:12:00,
2013-02-24 17:17:00,37.6,5.7,29.92,NE,50,4.0,7.0,26,0.00,,,0.04,meteohub,2013-02-24 23:17:00,
2013-02-24 17:22:00,37.4,5.5,29.92,NE,47,4.0,8.0,26,0.00,,,0.04,meteohub,2013-02-24 23:22:00,
2013-02-24 17:27:00,37.0,6.1,29.92,NE,47,10.0,10.0,27,0.00,,,0.04,meteohub,2013-02-24 23:27:00,
2013-02-24 17:32:00,36.9,5.9,29.92,NE,34,4.0,10.0,27,0.00,,,0.04,meteohub,2013-02-24 23:32:00,
2013-02-24 17:37:00,36.7,5.9,29.92,NE,46,6.0,10.0,27,0.00,,,0.04,meteohub,2013-02-24 23:37:00,
2013-02-24 17:42:00,36.5,5.7,29.92,NE,42,3.0,10.0,27,0.00,,,0.04,meteohub,2013-02-24 23:42:00,
2013-02-24 17:47:00,36.5,5.7,29.92,ENE,59,4.0,8.0,27,0.00,,,0.04,meteohub,2013-02-24 23:47:00,
2013-02-24 17:52:00,36.3,7.2,29.92,ENE,57,4.0,8.0,29,0.00,,,0.04,meteohub,2013-02-24 23:52:00,
2013-02-24 17:57:00,36.3,7.2,29.92,NE,55,6.0,8.0,29,0.00,,,0.04,meteohub,2013-02-24 23:57:00,
2013-02-24 18:02:00,36.3,7.2,29.95,ENE,72,3.0,8.0,29,0.00,,,0.04,meteohub,2013-02-25 00:02:00,
2013-02-24 18:07:00,36.3,7.2,29.95,ENE,59,3.0,8.0,29,0.00,,,0.04,meteohub,2013-02-25 00:07:00,
2013-02-24 18:12:00,36.3,7.2,29.95,ENE,58,6.0,6.0,29,0.00,,,0.04,meteohub,2013-02-25 00:12:00,
2013-02-24 18:17:00,36.1,7.0,29.95,ENE,61,2.0,7.0,29,0.00,,,0.04,meteohub,2013-02-25 00:17:00,
2013-02-24 18:22:00,36.1,7.0,29.95,ENE,71,0.0,7.0,29,0.00,,,0.04,meteohub,2013-02-25 00:22:00,
2013-02-24 18:27:00,36.1,7.0,29.95,ENE,71,4.0,7.0,29,0.00,,,0.04,meteohub,2013-02-25 00:27:00,
2013-02-24 18:32:00,36.1,7.0,29.95,ENE,71,3.0,5.0,29,0.00,,,0.04,meteohub,2013-02-25 00:32:00,
2013-02-24 18:37:00,36.1,7.0,29.95,ENE,71,0.0,5.0,29,0.00,,,0.04,meteohub,2013-02-25 00:37:00,
2013-02-24 18:42:00,36.1,7.0,29.95,ENE,62,3.0,5.0,29,0.00,,,0.04,meteohub,2013-02-25 00:42:00,
2013-02-24 18:47:00,36.1,7.0,29.98,ENE,66,3.0,4.0,29,0.00,,,0.04,meteohub,2013-02-25 00:47:00,
2013-02-24 18:52:00,36.1,7.0,29.98,East,94,4.0,5.0,29,0.00,,,0.04,meteohub,2013-02-25 00:52:00,
2013-02-24 18:57:00,36.0,6.8,29.98,ENE,57,5.0,5.0,29,0.00,,,0.04,meteohub,2013-02-25 00:57:00,
2013-02-24 19:02:00,35.8,6.6,29.98,ENE,57,5.0,5.0,29,0.00,,,0.04,meteohub,2013-02-25 01:02:00,
2013-02-24 19:07:00,35.8,6.6,29.98,ENE,63,3.0,5.0,29,0.00,,,0.04,meteohub,2013-02-25 01:07:00,
2013-02-24 19:12:00,35.6,6.4,29.98,ENE,62,0.0,5.0,29,0.00,,,0.04,meteohub,2013-02-25 01:12:00,
2013-02-24 19:17:00,35.4,7.0,29.98,ENE,63,0.0,5.0,30,0.00,,,0.04,meteohub,2013-02-25 01:17:00,
2013-02-24 19:22:00,35.4,7.0,29.98,ENE,63,0.0,5.0,30,0.00,,,0.04,meteohub,2013-02-25 01:22:00,
2013-02-24 19:27:00,35.4,7.0,29.98,NE,45,0.0,3.0,30,0.00,,,0.04,meteohub,2013-02-25 01:27:00,
2013-02-24 19:32:00,35.2,7.0,29.98,North,0,0.0,6.0,30,0.00,,,0.04,meteohub,2013-02-25 01:32:00,
2013-02-24 19:37:00,35.2,7.0,29.98,North,0,0.0,6.0,30,0.00,,,0.04,meteohub,2013-02-25 01:37:00,
2013-02-24 19:42:00,35.1,6.8,29.98,NNE,23,2.0,6.0,30,0.00,,,0.04,meteohub,2013-02-25 01:42:00,
2013-02-24 19:47:00,35.1,6.8,29.98,North,357,3.0,4.0,30,0.00,,,0.04,meteohub,2013-02-25 01:47:00,
2013-02-24 19:52:00,35.1,6.8,29.98,NE,34,3.0,5.0,30,0.00,,,0.04,meteohub,2013-02-25 01:52:00,
2013-02-24 19:57:00,35.1,6.8,29.98,NNE,14,3.0,5.0,30,0.00,,,0.04,meteohub,2013-02-25 01:57:00,
2013-02-24 20:02:00,34.9,6.6,30.01,NE,39,3.0,5.0,30,0.00,,,0.04,meteohub,2013-02-25 02:02:00,
2013-02-24 20:07:00,34.9,6.6,30.01,North,10,4.0,5.0,30,0.00,,,0.04,meteohub,2013-02-25 02:07:00,
2013-02-24 20:12:00,34.9,6.6,30.01,NNE,30,0.0,5.0,30,0.00,,,0.04,meteohub,2013-02-25 02:12:00,
2013-02-24 20:17:00,34.9,7.3,30.01,North,9,3.0,4.0,31,0.00,,,0.04,meteohub,2013-02-25 02:17:00,
2013-02-24 20:22:00,34.7,7.2,30.01,NNE,27,0.0,5.0,31,0.00,,,0.04,meteohub,2013-02-25 02:22:00,
2013-02-24 20:27:00,34.7,7.2,30.01,NE,34,3.0,5.0,31,0.00,,,0.04,meteohub,2013-02-25 02:27:00,
2013-02-24 20:32:00,34.7,7.2,30.01,North,8,4.0,4.0,31,0.00,,,0.04,meteohub,2013-02-25 02:32:00,
2013-02-24 20:37:00,34.5,7.0,30.01,NNE,19,0.0,6.0,31,0.00,,,0.04,meteohub,2013-02-25 02:37:00,
2013-02-24 20:42:00,34.5,7.0,30.01,NNE,32,4.0,6.0,31,0.00,,,0.04,meteohub,2013-02-25 02:42:00,
2013-02-24 20:47:00,34.5,7.0,30.01,NE,51,3.0,6.0,31,0.00,,,0.04,meteohub,2013-02-25 02:47:00,
2013-02-24 20:52:00,34.5,7.0,30.01,NE,41,4.0,5.0,31,0.00,,,0.04,meteohub,2013-02-25 02:52:00,
2013-02-24 20:57:00,34.3,6.8,30.01,NNE,29,3.0,6.0,31,0.00,,,0.04,meteohub,2013-02-25 02:57:00,
2013-02-24 21:02:00,34.3,6.8,30.01,NE,50,4.0,6.0,31,0.00,,,0.04,meteohub,2013-02-25 03:02:00,
2013-02-24 21:07:00,34.3,6.8,30.01,NNE,16,3.0,6.0,31,0.00,,,0.04,meteohub,2013-02-25 03:07:00,
2013-02-24 21:12:00,34.3,6.8,30.01,NE,45,0.0,6.0,31,0.00,,,0.04,meteohub,2013-02-25 03:12:00,
2013-02-24 21:17:00,34.3,7.5,30.01,North,357,4.0,5.0,32,0.00,,,0.04,meteohub,2013-02-25 03:17:00,
2013-02-24 21:22:00,34.3,7.5,30.01,NE,40,4.0,5.0,32,0.00,,,0.04,meteohub,2013-02-25 03:22:00,
2013-02-24 21:27:00,34.2,7.3,30.01,NE,44,3.0,5.0,32,0.00,,,0.04,meteohub,2013-02-25 03:27:00,
2013-02-24 21:32:00,34.2,7.3,30.01,NNE,31,3.0,5.0,32,0.00,,,0.04,meteohub,2013-02-25 03:32:00,
2013-02-24 21:37:00,34.0,7.2,30.01,North,8,4.0,5.0,32,0.00,,,0.04,meteohub,2013-02-25 03:37:00,
2013-02-24 21:42:00,34.0,7.2,30.01,NNE,31,4.0,5.0,32,0.00,,,0.04,meteohub,2013-02-25 03:42:00,
2013-02-24 21:47:00,34.0,7.9,30.01,NNE,19,0.0,8.0,33,0.00,,,0.04,meteohub,2013-02-25 03:47:00,
2013-02-24 21:52:00,34.0,7.9,30.01,NE,35,3.0,8.0,33,0.00,,,0.04,meteohub,2013-02-25 03:52:00,
2013-02-24 21:57:00,33.8,7.7,30.01,NNE,26,0.0,5.0,33,0.00,,,0.04,meteohub,2013-02-25 03:57:00,
2013-02-24 22:02:00,33.8,7.7,30.04,NE,40,3.0,5.0,33,0.00,,,0.04,meteohub,2013-02-25 04:02:00,
2013-02-24 22:07:00,33.8,7.7,30.04,North,1,3.0,5.0,33,0.00,,,0.04,meteohub,2013-02-25 04:07:00,
2013-02-24 22:12:00,33.8,7.7,30.04,NNE,12,0.0,5.0,33,0.00,,,0.04,meteohub,2013-02-25 04:12:00,
2013-02-24 22:17:00,33.8,7.7,30.04,NNE,26,0.0,5.0,33,0.00,,,0.04,meteohub,2013-02-25 04:17:00,
2013-02-24 22:22:00,33.8,7.7,30.04,NNE,27,4.0,5.0,33,0.00,,,0.04,meteohub,2013-02-25 04:22:00,
2013-02-24 22:27:00,33.6,8.2,30.04,NE,41,2.0,6.0,34,0.00,,,0.04,meteohub,2013-02-25 04:27:00,
2013-02-24 22:32:00,33.6,8.2,30.04,NNE,17,3.0,6.0,34,0.00,,,0.04,meteohub,2013-02-25 04:32:00,
2013-02-24 22:37:00,33.6,8.2,30.04,North,4,3.0,6.0,34,0.00,,,0.04,meteohub,2013-02-25 04:37:00,
2013-02-24 22:42:00,33.4,8.1,30.04,NNE,12,6.0,6.0,34,0.00,,,0.04,meteohub,2013-02-25 04:42:00,
2013-02-24 22:48:00,33.3,8.6,30.01,NNE,12,3.0,6.0,35,0.00,,,0.04,meteohub,2013-02-25 04:48:00,
2013-02-24 22:53:00,33.1,8.4,30.01,NNE,29,4.0,6.0,35,0.00,,,0.04,meteohub,2013-02-25 04:53:00,
2013-02-24 22:58:00,32.9,8.2,30.01,NNE,12,5.0,9.0,35,0.00,,,0.04,meteohub,2013-02-25 04:58:00,
2013-02-24 23:00:00,32.9,8.2,30.01,NE,42,4.0,9.0,35,0.00,,,0.04,meteohub,2013-02-25 05:00:00,
2013-02-24 23:01:00,32.9,8.2,30.01,North,11,3.0,9.0,35,0.00,,,0.04,meteohub,2013-02-25 05:01:00,
2013-02-24 23:02:00,32.9,8.2,30.01,North,4,5.0,9.0,35,0.00,,,0.04,meteohub,2013-02-25 05:02:00,
2013-02-24 23:05:00,32.7,8.8,30.01,NNE,16,3.0,9.0,36,0.00,,,0.04,meteohub,2013-02-25 05:05:00,
2013-02-24 23:10:00,32.7,8.8,30.01,North,8,0.0,5.0,36,0.00,,,0.04,meteohub,2013-02-25 05:10:00,
2013-02-24 23:15:00,32.7,9.3,30.01,NNE,15,4.0,8.0,37,0.00,,,0.04,meteohub,2013-02-25 05:15:00,
2013-02-24 23:20:00,32.5,9.1,30.01,North,9,9.0,9.0,37,0.00,,,0.04,meteohub,2013-02-25 05:20:00,
2013-02-24 23:25:00,32.4,9.5,30.01,NNE,32,6.0,9.0,38,0.00,,,0.04,meteohub,2013-02-25 05:25:00,
2013-02-24 23:30:00,32.2,9.5,30.01,North,5,4.0,9.0,38,0.00,,,0.04,meteohub,2013-02-25 05:30:00,
2013-02-24 23:35:00,32.2,9.5,30.01,North,3,4.0,9.0,38,0.00,,,0.04,meteohub,2013-02-25 05:35:00,
2013-02-24 23:41:00,32.0,9.3,30.01,NNE,21,3.0,7.0,38,0.00,,,0.04,meteohub,2013-02-25 05:41:00,
2013-02-24 23:46:00,32.0,9.9,30.01,North,357,3.0,7.0,39,0.00,,,0.04,meteohub,2013-02-25 05:46:00,
2013-02-24 23:51:00,31.8,9.7,30.01,NNE,21,6.0,7.0,39,0.00,,,0.04,meteohub,2013-02-25 05:51:00,
2013-02-24 23:56:00,31.6,9.5,30.01,NNE,26,6.0,9.0,39,0.00,,,0.04,meteohub,2013-02-25 05:56:00,